Terminal Aerodrome Forecast
Issued by NWS

Home | Current Version | Previous Version | Text Only | Print | Product List | Glossary On
Versions: 1 2 3 4 5 6 7 8 9 10 11 12 13 14 15 16 17 18 19 20 21 22 23 24 25 26 27 28 29 30 31 32 33 34 35 36 37 38 39 40 41
000
FTUS41 KGYX 272320
TAFMHT
TAF
KMHT 272320Z 2800/2824 30003KT P6SM OVC035
     FM280200 VRB03KT P6SM OVC027
     FM280600 35008G17KT 2SM -SHSN BR OVC009
     FM281800 35012G19KT 1 1/2SM -SN BR OVC007
     FM282100 34011KT P6SM OVC025=

USA.gov is the U.S. government's official web portal to all federal, state and local government web resources and services.